Hourly Data Report for July 22, 2017

TORONTO CITY
ONTARIO

43°40'00.000" N
79°24'00.000" W
112.50 m
6158355
71508
XTO

Download Data

Hourly Data (July 2017)
Hourly Data Report for July 22, 2017
TIME
LST
Temp Definition
°C
Dew Point Definition
°C
Rel Hum Definition
%
Precip. Amount Definition
mm

Wind Dir Definition
10's deg

Wind Spd Definition
km/h
Visibility Definition
km
Stn Press Definition
kPa
Hmdx Definition


Wind Chill Definition


Weather Definition


00:00 23.2 13.7 55 0.0 LegendMM LegendMM   100.02 26   LegendNANA
01:00 22.3 13.6 58 0.0 LegendMM LegendMM   99.97 25   LegendNANA
02:00 22.5 13.4 56 0.0 LegendMM LegendMM   99.86 26   LegendNANA
03:00 22.3 13.9 59 0.0 LegendMM LegendMM   99.88 26   LegendNANA
04:00 21.9 14.3 62 0.0 LegendMM LegendMM   99.88 25   LegendNANA
05:00 21.4 14.3 64 0.0 LegendMM LegendMM   99.86 25   LegendNANA
06:00 21.7 14.3 63 0.0 LegendMM LegendMM   99.90 25   LegendNANA
07:00 22.7 15.6 64 0.0 LegendMM LegendMM   99.87 27   LegendNANA
08:00 22.5 16.8 70 0.0 LegendMM LegendMM   99.90 28   LegendNANA
09:00 23.5 16.3 64 0.0 LegendMM LegendMM   99.86 28   LegendNANA
10:00 23.8 16.3 63 0.0 LegendMM LegendMM   99.85 29   LegendNANA
11:00 23.4 16.3 65 0.0 LegendMM LegendMM   99.83 28   LegendNANA
12:00 23.1 16.6 67 0.0 LegendMM LegendMM   99.82 28   LegendNANA
13:00 23.0 16.6 67 0.0 LegendMM LegendMM   99.76 28   LegendNANA
14:00 24.1 16.0 60 0.0 LegendMM LegendMM   99.67 29   LegendNANA
15:00 24.1 17.4 66 0.0 LegendMM LegendMM   99.60 30   LegendNANA
16:00 22.7 16.6 69 0.0 LegendMM LegendMM   99.58 28   LegendNANA
17:00 22.6 16.5 69 0.0 LegendMM LegendMM   99.51 28   LegendNANA
18:00 22.7 16.7 69 0.0 LegendMM LegendMM   99.52 28   LegendNANA
19:00 22.8 17.0 70 0.0 LegendMM LegendMM   99.56 28   LegendNANA
20:00 22.2 16.2 69 0.2 LegendMM LegendMM   99.57 27   LegendNANA
21:00 20.5 17.6 84 0.3 LegendMM LegendMM   99.62 26   LegendNANA
22:00 20.1 18.0 87 0.7 LegendMM LegendMM   99.61 26   LegendNANA
23:00 20.0 18.3 90 0.5 LegendMM LegendMM   99.54 26   LegendNANA

Notes on Data Quality.

Legend

  • E = Estimated
  • M = Missing
  • NA = Not Available*
  • [empty] = Indicates an unobserved value
Date modified: